Chevak, AK

10:26 AM AKDT on October 22, 2017 (GMT -0800)
Chevak

Weather History for PAVA - October, 2012

Change the Weather History Date:

Friday, October 5, 2012

  Actual Average (PAHP) Record (PAHP)
Temperature  
Mean Temperature 42 °F -  
Max Temperature 44 °F 38 °F 57 °F (2007)
Min Temperature 39 °F 32 °F 24 °F (2008)
Degree Days  
Heating Degree Days 24    
Moisture  
Dew Point 41 °F    
Average Humidity 92    
Maximum Humidity 100    
Minimum Humidity 81    
Precipitation  
Precipitation 0.12 in - - ()
Sea Level Pressure  
Sea Level Pressure 29.60 in    
Wind  
Wind Speed 30 mph (South)    
Max Wind Speed 45 mph    
Max Gust Speed 56 mph    
Visibility 10 miles    
Events Rain    
Averages and records for this station are not official NWS values.
T = Trace of Precipitation, MM = Missing Value Source: NWS Daily Summary

Daily Weather History Graph

Daily Weather History Graph

Search for Another Location

Airport or City:

Trip Planner

Search our weather history database for the weather conditions in past years. The results will help you decide how hot, cold, wet, or windy it might be!

Date:

Astronomy

Oct. 05, 2012 Rise Set
Actual Time 9:21 AM AKDT 8:18 PM AKDT
Civil Twilight 8:37 AM AKDT 9:01 PM AKDT
Nautical Twilight 7:46 AM AKDT 9:52 PM AKDT
Astronomical Twilight 6:53 AM AKDT 10:45 PM AKDT
Moon 10:23 PM AKDT (10/5) 4:08 PM AKDT (10/5)
Length of Visible Light 12h 24m
Length of Day
10h 57m
Waning Gibbous, 73% of the Moon is Illuminated
Oct 5
Waning Gibbous
Oct 7
Last Quarter
Oct 15
New
Oct 21
First Quarter
Oct 29
Full

Hourly Weather History & Observations

Time (AKDT) Temp. Windchill Dew Point Humidity Pressure Visibility Wind Dir Wind Speed Gust Speed Precip Events Conditions
12:51 AM 42.8 °F 30.5 °F 41.0 °F 93% 29.34 in 10.0 mi SSE 42.6 mph 52.9 mph 0.02 in Rain Light Rain
12:57 AM 43.0 °F 31.2 °F 41.0 °F 93% 29.35 in 10.0 mi SSE 39.1 mph 51.8 mph 0.02 in Rain Light Rain
1:57 AM 43.0 °F 30.8 °F 41.0 °F 93% 29.35 in 10.0 mi SSE 42.6 mph 55.2 mph 0.02 in Rain Light Rain
2:57 AM 43.0 °F 30.5 °F 41.0 °F 93% 29.36 in 10.0 mi SSE 44.9 mph 56.4 mph 0.00 in Rain Light Rain
3:57 AM 44.1 °F 32.3 °F 42.1 °F 93% 29.37 in 8.0 mi SSE 42.6 mph 51.8 mph 0.00 in Rain Light Rain
4:09 AM 44.6 °F 33.1 °F 42.8 °F 93% 29.36 in 9.0 mi SSE 42.6 mph 49.5 mph 0.00 in Rain Light Rain
4:57 AM 44.1 °F 33.2 °F 42.1 °F 93% 29.38 in 10.0 mi South 35.7 mph 48.3 mph 0.01 in Rain Light Rain
5:57 AM 44.6 °F 34.2 °F 42.8 °F 93% 29.40 in 10.0 mi South 33.4 mph 46.0 mph 0.01 in Rain Light Rain
6:57 AM 44.6 °F 33.9 °F 42.8 °F 93% 29.44 in 10.0 mi South 35.7 mph 44.9 mph 0.02 in Rain Light Rain
7:11 AM 44.6 °F 34.9 °F 41.0 °F 87% 29.44 in 10.0 mi South 28.8 mph 41.4 mph 0.00 in Rain Light Rain
7:23 AM 44.6 °F 34.7 °F 42.8 °F 93% 29.45 in 10.0 mi South 29.9 mph 41.4 mph 0.00 in Rain Light Rain
7:34 AM 42.8 °F 31.8 °F 41.0 °F 93% 29.47 in 10.0 mi South 33.4 mph 39.1 mph 0.00 in Rain Light Rain
7:54 AM 42.8 °F 32.3 °F 41.0 °F 93% 29.47 in 10.0 mi South 29.9 mph 38.0 mph 0.00 in Rain Light Rain
7:57 AM 43.0 °F 32.5 °F 41.0 °F 93% 29.49 in 10.0 mi South 29.9 mph 38.0 mph 0.00 in Rain Light Rain
8:21 AM 42.8 °F 32.5 °F 42.8 °F 100% 29.48 in 10.0 mi South 28.8 mph 38.0 mph 0.01 in Rain Light Rain
8:36 AM 44.6 °F 34.7 °F 42.8 °F 93% 29.49 in 10.0 mi South 29.9 mph 36.8 mph 0.01 in Rain Light Rain
8:57 AM 44.1 °F 34.0 °F 42.1 °F 93% 29.52 in 10.0 mi South 29.9 mph 39.1 mph 0.01 in Rain Light Rain
9:57 AM 43.0 °F 32.9 °F 42.1 °F 97% 29.54 in 5.0 mi South 27.6 mph 34.5 mph 0.00 in Rain Light Rain
10:00 AM 42.8 °F 32.7 °F 42.8 °F 100% 29.53 in 5.0 mi South 27.6 mph 34.5 mph 0.00 in Rain Light Rain
10:25 AM 44.6 °F 35.1 °F 41.0 °F 87% 29.54 in 10.0 mi South 27.6 mph 34.5 mph 0.00 in   Overcast
10:57 AM 42.8 °F 32.5 °F 42.8 °F 100% 29.56 in 6.0 mi South 28.8 mph 35.7 mph 0.00 in   Overcast
11:57 AM 43.0 °F 33.5 °F 42.1 °F 97% 29.60 in 6.0 mi South 24.2 mph 32.2 mph 0.00 in   Overcast
12:30 PM 44.6 °F 35.3 °F 41.0 °F 87% 29.60 in 10.0 mi South 26.5 mph 33.4 mph N/A   Overcast
12:57 PM 44.1 °F 35.4 °F 41.0 °F 89% 29.62 in 10.0 mi South 21.9 mph 34.5 mph N/A   Overcast
1:48 PM 44.6 °F 35.7 °F 42.8 °F 93% 29.63 in 10.0 mi South 24.2 mph 31.1 mph 0.00 in Rain Light Rain
1:57 PM 43.0 °F 33.8 °F 42.1 °F 97% 29.64 in 9.0 mi South 23.0 mph 28.8 mph 0.00 in Rain Light Rain
2:18 PM 42.8 °F 33.5 °F 41.0 °F 93% 29.64 in 10.0 mi South 23.0 mph 32.2 mph 0.00 in Rain Light Rain
2:26 PM 42.8 °F 34.0 °F 41.0 °F 93% 29.64 in 10.0 mi South 20.7 mph 28.8 mph 0.00 in   Overcast
2:36 PM 42.8 °F 34.0 °F 41.0 °F 93% 29.64 in 10.0 mi South 20.7 mph 29.9 mph 0.00 in Rain Light Rain
2:57 PM 44.1 °F 35.7 °F 42.1 °F 93% 29.66 in 10.0 mi South 20.7 mph 28.8 mph 0.00 in Rain Light Rain
3:00 PM 44.6 °F 35.9 °F 42.8 °F 93% 29.65 in 10.0 mi South 23.0 mph 28.8 mph 0.00 in Rain Light Rain
3:04 PM 44.6 °F 36.6 °F 42.8 °F 93% 29.65 in 10.0 mi South 19.6 mph 28.8 mph 0.00 in Rain Light Rain
3:07 PM 44.6 °F 36.4 °F 42.8 °F 93% 29.65 in 10.0 mi South 20.7 mph 28.8 mph 0.00 in Rain Light Rain
3:11 PM 44.6 °F 36.6 °F 42.8 °F 93% 29.65 in 10.0 mi South 19.6 mph 25.3 mph 0.00 in Rain Light Rain
3:32 PM 44.6 °F 36.1 °F 42.8 °F 93% 29.65 in 9.0 mi South 21.9 mph 27.6 mph 0.00 in   Overcast
3:46 PM 44.6 °F 36.9 °F 42.8 °F 93% 29.64 in 10.0 mi South 18.4 mph - 0.00 in Rain Light Rain
3:57 PM 44.1 °F 35.7 °F 42.1 °F 93% 29.66 in 10.0 mi South 20.7 mph 29.9 mph 0.00 in Rain Light Rain
4:03 PM 44.6 °F 36.1 °F 42.8 °F 93% 29.65 in 10.0 mi South 21.9 mph 27.6 mph 0.00 in Rain Light Rain
4:31 PM 44.6 °F 35.7 °F 41.0 °F 87% 29.65 in 10.0 mi South 24.2 mph 29.9 mph 0.00 in   Overcast
4:36 PM 44.6 °F 35.3 °F 41.0 °F 87% 29.65 in 10.0 mi South 26.5 mph 31.1 mph 0.00 in   Overcast
4:52 PM 44.6 °F 35.7 °F 41.0 °F 87% 29.65 in 10.0 mi South 24.2 mph 29.9 mph 0.00 in Rain Light Rain
4:57 PM 44.1 °F 35.4 °F 41.0 °F 89% 29.66 in 10.0 mi South 21.9 mph 29.9 mph 0.00 in Rain Light Rain
5:13 PM 42.8 °F 33.3 °F 41.0 °F 93% 29.65 in 10.0 mi South 24.2 mph 29.9 mph 0.00 in Rain Light Rain
5:16 PM 42.8 °F 33.8 °F 41.0 °F 93% 29.65 in 10.0 mi South 21.9 mph - 0.00 in Rain Light Rain
5:43 PM 42.8 °F 34.0 °F 41.0 °F 93% 29.65 in 10.0 mi South 20.7 mph 28.8 mph 0.00 in Rain Light Rain
5:46 PM 42.8 °F 33.1 °F 41.0 °F 93% 29.65 in 10.0 mi South 25.3 mph 28.8 mph 0.00 in Rain Light Rain
5:57 PM 43.0 °F 33.8 °F 41.0 °F 93% 29.66 in 10.0 mi South 23.0 mph 27.6 mph 0.00 in Rain Light Rain
6:03 PM 42.8 °F 33.8 °F 41.0 °F 93% 29.65 in 10.0 mi South 21.9 mph 28.8 mph 0.00 in Rain Light Rain
6:08 PM 42.8 °F 34.3 °F 41.0 °F 93% 29.65 in 10.0 mi South 19.6 mph 28.8 mph 0.00 in Rain Light Rain
6:20 PM 42.8 °F 33.8 °F 41.0 °F 93% 29.65 in 10.0 mi South 21.9 mph 29.9 mph 0.01 in Rain Light Rain
6:29 PM 42.8 °F 33.8 °F 41.0 °F 93% 29.65 in 10.0 mi South 21.9 mph 27.6 mph 0.01 in Rain Light Rain
6:42 PM 42.8 °F 34.0 °F 41.0 °F 93% 29.65 in 10.0 mi South 20.7 mph 29.9 mph 0.01 in Rain Light Rain
6:46 PM 42.8 °F 33.8 °F 41.0 °F 93% 29.65 in 10.0 mi South 21.9 mph 29.9 mph 0.01 in Rain Light Rain
6:57 PM 43.0 °F 34.2 °F 41.0 °F 93% 29.66 in 10.0 mi South 20.7 mph - 0.01 in Rain Light Rain
7:28 PM 42.8 °F 33.8 °F 41.0 °F 93% 29.66 in 10.0 mi South 21.9 mph - 0.01 in Rain Light Rain
7:31 PM 42.8 °F 33.3 °F 41.0 °F 93% 29.67 in 10.0 mi SSW 24.2 mph 27.6 mph 0.01 in Rain Light Rain
7:34 PM 42.8 °F 33.8 °F 41.0 °F 93% 29.67 in 10.0 mi SSW 21.9 mph 27.6 mph 0.01 in Rain Light Rain
7:57 PM 42.1 °F 33.6 °F 41.0 °F 96% 29.68 in 10.0 mi SSW 18.4 mph - 0.02 in Rain Light Rain
8:47 PM 42.8 °F 33.3 °F 39.2 °F 87% 29.69 in 10.0 mi SSW 24.2 mph 27.6 mph 0.01 in Rain Light Rain
8:57 PM 42.8 °F 32.7 °F 39.2 °F 87% 29.70 in 10.0 mi SSW 27.6 mph 35.7 mph 0.02 in Rain Light Rain
9:57 PM 42.1 °F 32.1 °F 39.0 °F 89% 29.74 in 10.0 mi SW 25.3 mph 29.9 mph 0.02 in   Overcast
10:48 PM 41.0 °F 30.9 °F 37.4 °F 87% 29.76 in 10.0 mi SSW 24.2 mph - 0.01 in   Mostly Cloudy
10:57 PM 41.0 °F 31.4 °F 37.0 °F 86% 29.77 in 10.0 mi SSW 21.9 mph 29.9 mph 0.01 in   Mostly Cloudy
11:28 PM 39.2 °F 29.0 °F 37.4 °F 93% 29.77 in 10.0 mi SW 21.9 mph - 0.00 in Rain Light Rain
11:44 PM 41.0 °F 31.6 °F 35.6 °F 81% 29.77 in 10.0 mi SW 20.7 mph 31.1 mph 0.00 in Rain Light Rain
11:48 PM 41.0 °F 32.5 °F 37.4 °F 87% 29.77 in 10.0 mi SSW 17.3 mph - 0.00 in   Mostly Cloudy
11:57 PM 41.0 °F 31.4 °F 37.0 °F 86% 29.79 in 10.0 mi SW 21.9 mph 32.2 mph 0.00 in Rain Light Rain